Regional Weather Roundup
Issued by NWS

Home | Current Version | Previous Version | Graphics & Text | Print | Product List | Glossary On
Versions: 1 2 3 4 5 6 7 8 9 10 11 12 13 14 15 16 17 18 19 20 21 22 23 24 25 26 27 28 29 30 31 32 33 34 35 36 37 38 39 40 41 42 43 44 45 46 47 48 49 50
000
ASUS43 KOAX 301002
RWRNE

WEATHER ROUNDUP FOR NEBRASKA
NATIONAL WEATHER SERVICE OMAHA NE
500 AM CDT FRI SEP 30 2016

NOTES: SATELLITE DATA IS BEING USED TO AUGMENT CLOUD COVER ABOVE
       12000 FEET.
       "FAIR" INDICATES FEW OR NO CLOUDS BELOW 12,000 FEET WITH NO
       SIGNIFICANT WEATHER AND/OR OBSTRUCTIONS TO VISIBILITY.

  * THESE STATIONS DO NOT REPORT WEATHER SUCH AS RAIN...SNOW OR FOG.

NEZ001>004-019>022-054>056-301100-
NEBRASKA PANHANDLE

CITY           SKY/WX    TMP DP  RH WIND       PRES   REMARKS
SCOTTSBLUFF    CLOUDY    48  40  73 E10       30.20F
ALLIANCE       CLOUDY    47  40  76 S12       30.21F
CHADRON        CLOUDY    57  40  52 S13       30.15F
KIMBALL        CLOUDY    47  42  81 S6        30.22S
SIDNEY         CLOUDY    47  39  74 SE13      30.21F
$$

NEZ057>060-069>072-079>082-301100-
SOUTHWEST NEBRASKA

CITY           SKY/WX    TMP DP  RH WIND       PRES   REMARKS
NORTH PLATTE   CLOUDY    42  40  92 E6        30.28F
IMPERIAL       CLOUDY    45  42  89 SE8       30.25F
LEXINGTON      CLEAR     42  40  91 E3        30.30R
MCCOOK         CLEAR     45  42  89 E5        30.28F
OGALLALA       CLOUDY    50  44  80 SE5       30.25F
$$

NEZ005>010-023>029-035>040-094-301100-
NORTH CENTRAL NEBRASKA

CITY           SKY/WX    TMP DP  RH WIND       PRES   REMARKS
VALENTINE      CLEAR     50  42  74 S10       30.25F
AINSWORTH      CLEAR     46  44  92 S8        30.27F
BROKEN BOW     CLEAR     37  37 100 CALM      30.29S
O`NEILL        CLEAR     44  43  93 SE3       30.30F
ORD            FOG       37  35  92 CALM      30.29F VSB 1
THEDFORD       CLEAR     42  40  95 SE6       30.27F
$$

NEZ041-046>049-061>064-073>077-083>087-301100-
SOUTH CENTRAL NEBRASKA

CITY           SKY/WX    TMP DP  RH WIND       PRES   REMARKS
GRAND ISLAND   CLEAR     42  39  89 CALM      30.31S
AURORA         CLEAR     42  41  96 CALM      30.30F
HASTINGS       CLEAR     45  40  82 CALM      30.31S
HEBRON         CLEAR     41  40  97 CALM      30.30S
HOLDREGE       CLOUDY    41  39  93 CALM      30.30S
KEARNEY *      CLOUDY    45  37  76 CALM      30.30S
YORK           CLEAR     43  41  93 CALM      30.31S
$$

NEZ011>018-030>034-042>045-301100-
NORTHEAST NEBRASKA

CITY           SKY/WX    TMP DP  RH WIND       PRES   REMARKS
NORFOLK        CLEAR     42  40  92 CALM      30.31F
ALBION         CLOUDY    39  37  94 CALM      30.31F
BLAIR          CLEAR     50  46  87 N8        30.30S
FREMONT        CLEAR     43  43  98 CALM      30.31S
TEKAMAH        CLEAR     44  42  93 N7        30.31F
WAYNE          CLEAR     38  37  97 CALM      30.33S
$$

NEZ050>053-065>068-078-088>093-301100-
SOUTHEAST NEBRASKA

CITY           SKY/WX    TMP DP  RH WIND       PRES   REMARKS
LINCOLN        CLEAR     44  42  93 N5        30.32S
OMAHA EPPLEY   CLEAR     48  44  86 N7        30.30F
BEATRICE       CLEAR     44  44  98 CALM      30.30S
FALLS CITY     CLEAR     48  46  93 W6        30.27S
NEBRASKA CITY  CLEAR     50  44  80 N6        30.29S
PLATTSMOUTH    CLEAR     49  44  84 CALM      30.30S
$$

NEZ044-045-051>053-067-301100-
OMAHA AREA

CITY           SKY/WX    TMP DP  RH WIND       PRES   REMARKS
OMAHA EPPLEY   CLEAR     48  44  86 N7        30.30F
BLAIR          CLEAR     50  46  87 N8        30.30S
FREMONT        CLEAR     43  43  98 CALM      30.31S
MILLARD        CLEAR     48  47  94 CALM      30.30S
OFFUTT AFB     CLEAR     46  46  99 W3        30.29S
PLATTSMOUTH    CLEAR     49  44  84 CALM      30.30S
WAHOO          FAIR      45  44  95 N7        30.31S
$$




USA.gov is the U.S. government's official web portal to all federal, state and local government web resources and services.